TimeCDT,TemperatureF,Dew PointF,Humidity,Sea Level PressureIn,VisibilityMPH,Wind Direction,Wind SpeedMPH,Gust SpeedMPH,PrecipitationIn,Events,Conditions,WindDirDegrees,DateUTC
12:15 AM,48.6,44.4,86,30.22,10.0,Calm,Calm,-,N/A,,Overcast,0,2012-10-12 05:15:00
12:35 AM,48.9,48.0,97,30.21,10.0,Calm,Calm,-,N/A,,Scattered Clouds,0,2012-10-12 05:35:00
1:15 AM,47.5,47.3,99,30.22,10.0,Calm,Calm,-,N/A,,Clear,0,2012-10-12 06:15:00
1:35 AM,47.1,47.1,100,30.22,10.0,Calm,Calm,-,N/A,,Clear,0,2012-10-12 06:35:00
1:55 AM,47.8,47.8,100,30.22,10.0,Calm,Calm,-,N/A,,Mostly Cloudy,0,2012-10-12 06:55:00
2:15 AM,48.4,48.4,100,30.21,10.0,Calm,Calm,-,N/A,,Overcast,0,2012-10-12 07:15:00
2:35 AM,50.0,49.3,97,30.23,10.0,Calm,Calm,-,N/A,,Overcast,0,2012-10-12 07:35:00
2:55 AM,50.9,50.4,98,30.22,10.0,ESE,3.5,-,N/A,,Light Drizzle,110,2012-10-12 07:55:00
3:15 AM,50.7,50.7,100,30.23,10.0,Calm,Calm,-,N/A,Rain,Light Rain,0,2012-10-12 08:15:00
3:35 AM,51.1,51.1,100,30.23,10.0,Calm,Calm,-,N/A,Rain,Light Rain,0,2012-10-12 08:35:00
3:55 AM,50.4,50.4,100,30.22,10.0,Calm,Calm,-,N/A,Rain,Rain,0,2012-10-12 08:55:00
4:15 AM,50.9,50.9,100,30.23,10.0,NNE,3.5,-,N/A,,Light Drizzle,20,2012-10-12 09:15:00
4:35 AM,51.4,49.6,94,30.22,10.0,Calm,Calm,-,N/A,,Overcast,0,2012-10-12 09:35:00
4:55 AM,51.6,50.7,97,30.22,10.0,Calm,Calm,-,N/A,,Overcast,0,2012-10-12 09:55:00
5:15 AM,51.8,51.6,99,30.24,10.0,NNE,3.5,-,N/A,,Overcast,20,2012-10-12 10:15:00
5:35 AM,51.4,50.2,95,30.23,10.0,Calm,Calm,-,N/A,,Overcast,0,2012-10-12 10:35:00
5:55 AM,51.3,47.8,88,30.25,10.0,NNE,6.9,-,N/A,,Overcast,30,2012-10-12 10:55:00
6:15 AM,51.1,46.4,84,30.25,10.0,ENE,3.5,-,N/A,,Overcast,60,2012-10-12 11:15:00
6:35 AM,51.3,46.4,83,30.26,10.0,Calm,Calm,-,N/A,,Overcast,0,2012-10-12 11:35:00
6:55 AM,51.4,46.6,83,30.27,10.0,NE,3.5,-,N/A,,Overcast,40,2012-10-12 11:55:00
7:15 AM,51.4,46.2,82,30.26,10.0,Calm,Calm,-,N/A,,Overcast,0,2012-10-12 12:15:00
7:35 AM,51.8,46.2,81,30.28,10.0,NNE,3.5,-,N/A,,Overcast,30,2012-10-12 12:35:00
8:15 AM,52.3,46.4,80,30.28,10.0,Calm,Calm,-,N/A,,Overcast,0,2012-10-12 13:15:00
8:35 AM,53.2,45.9,76,30.29,10.0,ENE,4.6,-,N/A,,Overcast,70,2012-10-12 13:35:00
9:35 AM,54.1,45.5,73,30.31,10.0,ENE,5.8,-,N/A,,Overcast,70,2012-10-12 14:35:00
9:55 AM,54.3,45.5,72,30.30,10.0,East,4.6,-,N/A,,Overcast,80,2012-10-12 14:55:00
10:15 AM,54.9,45.9,72,30.32,10.0,NE,3.5,-,N/A,,Overcast,50,2012-10-12 15:15:00
10:35 AM,54.7,45.3,71,30.33,10.0,Calm,Calm,-,N/A,,Overcast,0,2012-10-12 15:35:00
11:55 AM,56.5,45.9,68,30.33,10.0,East,6.9,-,N/A,,Overcast,100,2012-10-12 16:55:00
12:15 PM,57.6,46.4,66,30.33,10.0,ESE,3.5,-,N/A,,Overcast,110,2012-10-12 17:15:00
12:35 PM,59.0,47.1,65,30.33,10.0,East,5.8,-,N/A,,Overcast,90,2012-10-12 17:35:00
12:55 PM,60.6,47.8,63,30.31,10.0,ESE,4.6,-,N/A,,Overcast,110,2012-10-12 17:55:00
1:35 PM,61.5,43.9,52,30.31,10.0,East,3.5,-,N/A,,Overcast,80,2012-10-12 18:35:00
2:15 PM,62.8,42.8,48,30.29,10.0,NE,4.6,-,N/A,,Overcast,50,2012-10-12 19:15:00
2:35 PM,63.7,43.3,48,30.29,10.0,ENE,4.6,-,N/A,,Overcast,70,2012-10-12 19:35:00
2:55 PM,64.8,43.7,46,30.29,10.0,Calm,Calm,-,N/A,,Overcast,0,2012-10-12 19:55:00
3:15 PM,65.3,45.0,48,30.28,10.0,Calm,Calm,-,N/A,,Overcast,0,2012-10-12 20:15:00
3:35 PM,64.9,45.3,49,30.28,10.0,NNE,3.5,-,N/A,,Overcast,30,2012-10-12 20:35:00
3:55 PM,63.9,45.5,51,30.28,10.0,East,3.5,-,N/A,,Overcast,80,2012-10-12 20:55:00
4:35 PM,63.5,45.5,52,30.29,10.0,Calm,Calm,-,N/A,,Scattered Clouds,0,2012-10-12 21:35:00
4:55 PM,63.5,45.7,52,30.29,10.0,Calm,Calm,-,N/A,,Clear,0,2012-10-12 21:55:00
5:15 PM,63.0,46.0,54,30.30,10.0,Calm,Calm,-,N/A,,Clear,0,2012-10-12 22:15:00
6:15 PM,58.3,47.1,66,30.29,10.0,Calm,Calm,-,N/A,,Clear,0,2012-10-12 23:15:00
6:35 PM,56.5,46.9,70,30.29,10.0,Calm,Calm,-,N/A,,Clear,0,2012-10-12 23:35:00
6:55 PM,53.6,46.6,77,30.29,10.0,Calm,Calm,-,N/A,,Clear,0,2012-10-12 23:55:00
7:15 PM,53.1,46.9,80,30.29,10.0,Calm,Calm,-,N/A,,Clear,0,2012-10-13 00:15:00
7:35 PM,52.0,46.6,82,30.29,10.0,East,3.5,-,N/A,,Clear,80,2012-10-13 00:35:00
7:55 PM,52.0,46.8,82,30.29,10.0,East,4.6,-,N/A,,Clear,80,2012-10-13 00:55:00
8:15 PM,51.4,46.4,83,30.28,10.0,East,4.6,-,N/A,,Clear,90,2012-10-13 01:15:00
8:35 PM,52.0,45.9,80,30.29,10.0,Calm,Calm,-,N/A,,Clear,0,2012-10-13 01:35:00
9:15 PM,48.7,46.6,92,30.32,10.0,Calm,Calm,-,N/A,,Clear,0,2012-10-13 02:15:00